Regional Weather Roundup
Issued by NWS

Home | Current Version | Previous Version | Graphics & Text | Print | Product List | Glossary On
Versions: 1 2 3 4 5 6 7 8 9 10 11 12 13 14 15 16 17 18 19 20 21 22 23 24 25 26 27 28 29 30 31 32 33 34 35 36 37 38 39 40 41 42 43 44 45 46 47 48 49 50
000
ASUS44 KMEG 260510
RWRTN
TENNESSEE HOURLY STATE WEATHER ROUNDUP
NATIONAL WEATHER SERVICE MEMPHIS TN
1200 AM CDT TUE MAY 26 2015

TNZ002-004-019-021-049-052-054-088>092-260600-
WEST TENNESSEE

CITY           SKY/WX    TMP DP  RH WIND       PRES   REMARKS
MEMPHIS INTL   CLOUDY    75  68  78 S15G23    29.98F
NWS MEMPHIS      N/A     73 N/A N/A MISG        N/A
JACKSON        CLOUDY    72  67  84 S9        30.02F
DYERSBURG      CLOUDY    72  57  60 SE7       30.00F
PARIS          PTCLDY    66  66 100 SE7       30.05F
LEXINGTON      PTCLDY    68  66  94 SE3       30.05F
$$

TNZ008-025-027-028-033-062-065-066-260600-
NORTH MIDDLE TENNESSEE

CITY           SKY/WX    TMP DP  RH WIND       PRES   REMARKS
NASHVILLE      MOCLDY    67  65  93 SE6       30.12S
CLARKSVILLE    MOCLDY    68  66  93 SE6       30.07F
SMYRNA         PTCLDY    66  65  97 S6        30.13S
COOKEVILLE     PTCLDY    66  64  94 S6        30.16S
CROSSVILLE     CLOUDY    66  62  87 VRB3      30.22S
$$

TNZ061-075-076-078-094-096-097-260600-
SOUTH MIDDLE TENNESSEE

CITY           SKY/WX    TMP DP  RH WIND       PRES   REMARKS
FAYETTEVILLE   CLEAR    N/A N/A N/A MISG      30.16S
TULLAHOMA      CLEAR     64  64 100 SE6       30.17F
WINCHESTER     CLEAR     66  64  94 SE8       30.17F
MCMINNVILLE    CLEAR     68  68 100 VRB3      30.16F
COLUMBIA       CLEAR     66  66 100 VRB6      30.10S
SHELBYVILLE    CLEAR     68  66  94 SE7       30.15S
$$

TNZ017-018-042-046-047-260600-
NORTHEAST TENNESSEE

CITY           SKY/WX    TMP DP  RH WIND       PRES   REMARKS
TRI CITIES     CLOUDY    73  59  61 S6        30.23R
ELIZABETHTON   CLEAR     64  59  82 CALM      30.25R
$$

TNZ012-013-036-069-073-074-260600-
CENTRAL EAST TENNESSEE

CITY           SKY/WX    TMP DP  RH WIND       PRES   REMARKS
KNOXVILLE      CLOUDY    68  62  81 W6        30.19R
OAK RIDGE      CLOUDY    69  66  90 VRB3      30.21S
GATLINBURG     PTCLDY    66  63  88 E3        30.19S
MORRISTOWN     CLEAR     70  64  83 CALM      30.21S
$$

TNZ083-085-099-260600-
SOUTHEAST TENNESSEE

CITY           SKY/WX    TMP DP  RH WIND       PRES   REMARKS
CHATTANOOGA    MOCLDY    67  66  97 CALM      30.21R
$$

SKY/WX REPORTED AS FAIR MEANS FEW OR NO CLOUDS BELOW
12 THOUSAND FEET.




USA.gov is the U.S. government's official web portal to all federal, state and local government web resources and services.